Location: Capelle
(50.3413°N, 1.9974°E)
Time: 23:13:11
(UTC+00:00)

COSMOS 2455 - Pass Details

Date: 12 January 2026
Orbit: 899 x 909 km, 67.1° (Epoch: 7 February)

Event Time Altitude Azimuth Distance (km) Brightness Sun altitude
Rises 19:27:58 0° 323° (NW) 3,550 6.4 -30.3°
Reaches altitude 10° 19:30:35 10° 329° (NNW) 2,605 5.6 -30.7°
Enters shadow 19:34:12 34° 351° (N) 1,452 3.9 -31.3°
